This is the latest recevied weather packets stored in our database for station/object N8DMH-13. If no packets are shown the sender has not sent any weather packets the latest 10 day(s).
| Time | Temp. | Humidity | Pressure | Rain* | Wind** | Luminosity | Snow |
|---|---|---|---|---|---|---|---|
| 1777981469 | 6.11° C | 69% | 1004 hPa | 0 mm | - | - | - |
| 1777981139 | 6.11° C | 70% | 1004 hPa | 0 mm | - | - | - |
| 1777980839 | 6.11° C | 70% | 1003.9 hPa | 0 mm | - | - | - |
| 1777980512 | 5.56° C | 72% | 1003.8 hPa | 0 mm | - | - | - |
| 1777980179 | 5.56° C | 74% | 1003.7 hPa | 0 mm | - | - | - |
| 1777979878 | 5.56° C | 73% | 1003.6 hPa | 0 mm | - | - | - |
| 1777979549 | 5.56° C | 74% | 1003.6 hPa | 0 mm | - | - | - |
| 1777979248 | 5.56° C | 74% | 1003.5 hPa | 0 mm | - | - | - |
| 1777978918 | 5.56° C | 75% | 1003.5 hPa | 0 mm | - | - | - |
| 1777978618 | 5.56° C | 76% | 1003.6 hPa | 0 mm | - | - | - |
| 1777978318 | 5° C | 77% | 1003.5 hPa | 0 mm | - | - | - |
| 1777977988 | 4.44° C | 80% | 1003.5 hPa | 0 mm | - | - | - |
| 1777977660 | 4.44° C | 80% | 1003.4 hPa | 0 mm | - | - | - |
| 1777977358 | 4.44° C | 81% | 1003.3 hPa | 0 mm | - | - | - |
| 1777977027 | 3.89° C | 84% | 1003 hPa | 0 mm | - | - | - |
| 1777976698 | 3.89° C | 85% | 1002.8 hPa | 0 mm | - | - | - |
| 1777976397 | 3.89° C | 85% | 1002.7 hPa | 0 mm | - | - | - |
| 1777976067 | 3.33° C | 84% | 1002.6 hPa | 0 mm | - | - | - |
| 1777975767 | 3.89° C | 84% | 1002.5 hPa | 0 mm | - | - | - |
| 1777975467 | 3.89° C | 83% | 1002.5 hPa | 0 mm | - | - | - |
| 1777975137 | 3.89° C | 83% | 1002.5 hPa | 0 mm | - | - | - |
| 1777974837 | 3.89° C | 83% | 1002.4 hPa | 0 mm | - | - | - |
| 1777974537 | 4.44° C | 82% | 1002.3 hPa | 0 mm | - | - | - |
| 1777974207 | 4.44° C | 81% | 1002.3 hPa | 0 mm | - | - | - |
| 1777973876 | 4.44° C | 81% | 1002.2 hPa | 0 mm | - | - | - |
* Rain latest hour (hover to see other rain measurements)
** Current wind speed in m/s (hover to see current wind gust speed)